Total_Precipitation_Accumulation
0.02 0.04 0.06 0.07 0.08 0.08 0.11 0.21 0.26 0.29 0.33 0.37 0.46 0.54 0.85 1.09 1.19 1.33 1.51 1.75 1.92 2.09 2.17 2.35 2.73 3.00 3.17 3.31 3.58 3.88 4.25 4.63 4.76 4.60 4.54 4.52 4.31 4.05 3.68 3.53 3.62 3.65 3.41 3.44
0.04 0.06 0.07 0.07 0.07 0.09 0.13 0.22 0.29 0.34 0.37 0.37 0.53 0.65 0.88 1.33 1.48 1.44 1.50 1.52 1.57 2.00 2.20 2.43 2.76 2.90 2.87 3.06 3.37 3.79 4.25 4.58 4.50 4.63 4.86 4.85 4.66 4.03 3.70 3.59 3.58 3.44 3.26 3.21
0.06 0.06 0.04 0.06 0.08 0.11 0.15 0.19 0.25 0.32 0.45 0.43 0.55 0.98 1.15 1.44 1.58 1.46 1.41 1.42 1.38 1.57 1.88 2.01 2.21 2.37 2.61 3.03 3.51 3.85 4.18 4.32 4.34 4.57 4.73 4.47 4.28 3.82 3.69 3.70 3.59 3.37 3.29 3.27
0.05 0.06 0.05 0.07 0.10 0.11 0.17 0.16 0.18 0.27 0.45 0.60 0.66 1.30 1.58 1.77 1.65 1.38 1.39 1.44 1.54 1.66 1.75 1.87 1.90 2.21 2.59 3.03 3.63 4.06 4.09 4.16 4.02 4.16 4.32 4.19 3.85 3.61 3.50 3.49 3.27 3.13 3.03 3.02
0.07 0.06 0.07 0.08 0.08 0.09 0.14 0.13 0.15 0.25 0.38 0.61 0.73 1.13 1.60 1.69 1.60 1.29 1.20 1.40 1.63 1.61 1.67 1.90 1.85 2.04 2.32 2.75 3.17 3.60 3.95 4.01 3.82 3.77 3.85 4.01 3.84 3.55 3.32 3.21 3.12 3.05 3.01 2.81
0.10 0.09 0.09 0.10 0.09 0.09 0.11 0.13 0.22 0.36 0.58 0.99 0.77 0.87 1.30 1.55 1.44 1.19 1.19 1.32 1.49 1.66 1.67 1.83 2.08 2.14 2.29 2.56 2.92 3.23 3.46 3.44 3.38 3.34 3.38 3.51 3.57 3.52 3.28 3.09 3.13 3.08 2.92 2.75
0.18 0.20 0.16 0.13 0.12 0.11 0.12 0.24 0.64 1.06 1.36 1.18 0.80 0.87 1.22 1.18 1.01 0.93 1.00 1.27 1.52 1.79 1.81 1.85 2.03 2.15 2.25 2.36 2.55 2.71 2.80 2.85 2.82 2.85 2.83 2.82 2.95 3.03 2.92 2.83 2.90 2.92 2.79 2.67
0.27 0.27 0.20 0.17 0.15 0.15 0.16 0.28 0.69 0.94 1.09 1.03 0.94 1.15 1.21 0.96 0.82 0.84 0.91 1.10 1.40 1.58 1.62 1.73 1.81 1.75 1.77 1.83 1.97 2.13 2.22 2.24 2.21 2.30 2.40 2.42 2.62 2.64 2.64 2.76 2.66 2.69 2.62 2.59
0.15 0.17 0.17 0.17 0.18 0.18 0.23 0.30 0.32 0.52 0.66 1.05 1.25 1.33 1.21 0.89 1.01 1.00 1.08 1.14 1.20 1.27 1.32 1.34 1.37 1.43 1.54 1.58 1.66 1.78 1.88 1.88 1.81 1.88 2.06 2.14 2.22 2.34 2.43 2.54 2.44 2.31 2.34 2.22
0.08 0.13 0.17 0.13 0.14 0.17 0.24 0.37 0.50 0.73 0.99 1.18 1.33 1.57 1.74 1.54 1.45 1.30 1.40 1.62 1.37 1.11 1.15 1.19 1.18 1.23 1.25 1.31 1.43 1.59 1.68 1.82 1.82 1.79 1.85 1.83 1.94 2.04 2.22 2.30 2.18 2.20 2.29 2.23
0.08 0.12 0.18 0.20 0.17 0.22 0.36 0.45 0.55 0.69 0.80 1.09 1.45 1.64 1.42 1.57 1.55 1.47 1.41 1.44 1.32 1.01 0.94 1.03 0.99 1.01 1.07 1.14 1.25 1.40 1.69 1.85 1.79 1.64 1.70 1.81 1.79 1.87 1.97 2.03 1.96 2.06 2.17 2.31
0.11 0.13 0.18 0.23 0.22 0.21 0.30 0.44 0.55 0.72 0.81 0.91 1.16 1.42 1.03 1.16 1.14 1.11 1.17 1.04 0.96 0.91 0.74 0.86 0.91 0.86 0.91 0.96 1.07 1.25 1.48 1.65 1.67 1.62 1.65 1.77 1.84 1.82 1.78 1.75 1.79 1.85 1.89 1.97
0.14 0.19 0.32 0.52 0.48 0.31 0.28 0.30 0.37 0.47 0.62 0.71 1.04 1.36 0.94 0.92 1.04 1.04 1.00 0.99 0.84 0.90 0.82 0.79 0.89 0.93 0.90 0.89 0.99 1.19 1.25 1.46 1.66 1.66 1.65 1.75 1.71 1.67 1.72 1.85 1.91 1.89 1.90 1.93
0.15 0.17 0.28 0.54 0.59 0.46 0.35 0.34 0.36 0.41 0.56 0.59 0.69 1.04 1.04 1.03 1.06 1.12 1.06 0.90 0.75 0.77 0.86 0.82 0.82 0.81 0.74 0.76 0.86 1.06 1.16 1.31 1.48 1.61 1.71 1.83 1.80 1.81 1.91 2.02 2.10 2.04 1.96 1.99
0.15 0.15 0.19 0.27 0.34 0.35 0.32 0.32 0.34 0.38 0.42 0.55 0.63 0.82 0.97 0.96 1.02 1.16 1.05 0.89 0.85 0.75 0.76 0.79 0.74 0.67 0.64 0.67 0.76 0.95 1.12 1.26 1.39 1.63 1.79 1.88 1.92 1.93 1.95 1.97 2.05 2.05 1.94 1.92
0.20 0.21 0.25 0.34 0.36 0.39 0.36 0.36 0.32 0.31 0.29 0.34 0.53 0.79 0.79 0.77 0.83 0.98 0.99 1.06 1.04 0.93 0.77 0.71 0.71 0.73 0.73 0.66 0.69 0.77 0.93 1.12 1.29 1.51 1.66 1.72 1.85 1.96 1.95 1.90 1.94 1.93 1.97 2.02
0.26 0.31 0.40 0.46 0.49 0.56 0.58 0.46 0.44 0.42 0.38 0.42 0.66 0.81 0.68 0.69 0.74 0.78 0.84 0.99 0.97 0.94 0.99 0.99 0.90 0.91 0.80 0.70 0.73 0.77 0.84 1.03 1.24 1.40 1.50 1.63 1.77 1.86 1.86 1.79 1.85 1.95 1.98 1.96
0.32 0.40 0.45 0.49 0.67 0.92 0.69 0.43 0.38 0.39 0.43 0.41 0.52 0.59 0.58 0.63 0.64 0.71 0.85 0.87 0.84 0.75 0.79 0.94 1.01 1.01 0.97 0.86 0.89 0.93 0.98 1.11 1.27 1.43 1.52 1.60 1.71 1.75 1.76 1.74 1.70 1.78 1.82 1.82
0.30 0.45 0.55 0.62 0.75 0.78 0.66 0.52 0.51 0.52 0.56 0.41 0.46 0.53 0.59 0.69 0.74 0.84 0.76 0.74 0.79 0.73 0.81 0.87 0.93 1.00 1.12 1.14 1.12 1.16 1.27 1.35 1.35 1.41 1.53 1.63 1.73 1.78 1.78 1.81 1.77 1.82 1.82 1.77
0.34 0.44 0.61 0.65 0.91 1.00 0.81 0.60 0.62 0.71 1.01 0.68 0.60 0.68 0.75 0.77 1.02 1.10 0.77 0.78 0.93 0.79 0.78 0.86 0.90 0.90 1.07 1.19 1.22 1.26 1.32 1.38 1.36 1.42 1.53 1.64 1.75 1.89 1.87 1.94 1.96 1.93 1.83 1.76
0.65 0.69 0.70 0.71 0.95 1.06 0.75 0.59 0.70 1.25 1.40 0.86 0.78 0.81 0.87 0.94 0.96 0.91 0.78 0.88 1.04 0.91 0.85 0.77 0.84 1.03 1.13 1.18 1.27 1.34 1.32 1.37 1.40 1.54 1.62 1.72 1.80 1.86 1.85 1.93 1.99 1.99 1.93 1.93
0.93 0.93 0.87 0.94 1.23 1.34 0.81 0.73 1.02 1.19 0.89 0.84 0.84 0.80 0.84 0.85 0.82 0.76 0.72 0.78 0.88 0.95 0.95 0.95 1.04 1.14 1.18 1.23 1.39 1.52 1.56 1.50 1.60 1.70 1.68 1.75 1.86 1.72 1.72 1.96 2.04 2.06 2.09 2.06
1.01 1.06 1.11 1.17 1.30 1.12 1.00 1.05 1.10 0.96 0.99 0.89 0.80 0.80 0.78 0.79 0.78 0.78 0.76 0.69 0.76 0.92 0.95 1.00 1.11 1.13 1.17 1.24 1.41 1.65 1.68 1.61 1.62 1.70 1.74 1.74 1.79 1.91 1.99 2.06 2.11 2.09 2.05 2.04
1.15 1.01 1.21 1.37 1.34 1.18 1.17 1.16 1.15 1.07 1.04 0.95 0.83 0.86 0.82 0.85 0.94 0.89 0.88 0.88 0.81 0.85 0.89 0.94 1.07 1.09 1.20 1.30 1.47 1.74 1.78 1.73 1.76 1.83 1.90 1.88 1.84 1.90 2.08 2.26 2.27 2.19 2.05 2.09
1.37 1.31 1.48 1.69 1.60 1.39 1.22 1.07 1.02 0.97 0.91 0.86 0.88 0.93 0.94 0.93 1.01 1.00 1.05 1.10 1.01 0.93 0.91 1.00 1.15 1.27 1.31 1.36 1.45 1.62 1.78 1.92 2.00 2.03 2.01 2.01 2.03 2.07 2.15 2.15 2.14 2.13 2.08 2.02
1.40 1.56 1.84 1.95 1.60 1.44 1.37 1.21 1.17 0.98 0.86 0.85 0.88 0.90 0.97 0.97 1.02 1.01 1.07 1.14 1.11 1.12 1.20 1.20 1.23 1.35 1.42 1.45 1.53 1.64 1.86 2.13 2.32 2.29 2.19 2.18 2.16 2.18 2.16 2.18 2.01 1.88 1.81 1.74